�������l�o���
Date,Time,MP-1(��Sv/h),MP-2(��Sv/h),MP-3(��Sv/h),MP-4(��Sv/h),MP-5(��Sv/h),MP-6(��Sv/h),MP-7(��Sv/h),MP-8(��Sv/h),����,����(m/s),���J
2023/08/26,00:00,0.553,0.839,0.510,1.032,0.757,0.328,0.587,0.540,��,6.1,��
2023/08/26,00:10,0.553,0.836,0.509,1.031,0.755,0.330,0.586,0.542,��,5.1,��
2023/08/26,00:20,0.552,0.837,0.509,1.031,0.754,0.328,0.587,0.542,��,4.3,��
2023/08/26,00:30,0.554,0.835,0.509,1.031,0.755,0.329,0.588,0.540,��,4.4,��
2023/08/26,00:40,0.554,0.835,0.508,1.032,0.756,0.329,0.586,0.540,��,4.6,��
2023/08/26,00:50,0.552,0.836,0.509,1.032,0.754,0.328,0.584,0.542,��,4.5,��
2023/08/26,01:00,0.551,0.835,0.509,1.033,0.757,0.329,0.586,0.541,��,5.1,��
2023/08/26,01:10,0.553,0.835,0.510,1.032,0.755,0.328,0.585,0.541,��,4.8,��
2023/08/26,01:20,0.553,0.837,0.511,1.032,0.756,0.329,0.586,0.541,��,5.6,��
2023/08/26,01:30,0.553,0.834,0.508,1.033,0.755,0.327,0.585,0.541,��,5.4,��
2023/08/26,01:40,0.553,0.837,0.508,1.032,0.755,0.329,0.586,0.540,��,5.0,��
2023/08/26,01:50,0.552,0.836,0.508,1.030,0.757,0.329,0.585,0.541,��,3.8,��
2023/08/26,02:00,0.554,0.835,0.509,1.032,0.756,0.328,0.586,0.541,��,3.7,��
2023/08/26,02:10,0.552,0.836,0.509,1.032,0.758,0.328,0.586,0.543,��,3.8,��
2023/08/26,02:20,0.553,0.835,0.509,1.032,0.756,0.327,0.584,0.541,��,3.7,��
2023/08/26,02:30,0.553,0.837,0.510,1.030,0.756,0.329,0.586,0.541,��,3.6,��
2023/08/26,02:40,0.554,0.838,0.508,1.032,0.755,0.329,0.585,0.541,��쐼,3.3,��
2023/08/26,02:50,0.552,0.836,0.509,1.033,0.757,0.328,0.585,0.541,��,3.4,��
2023/08/26,03:00,0.554,0.834,0.509,1.032,0.756,0.326,0.585,0.542,��쐼,2.8,��
2023/08/26,03:10,0.551,0.835,0.510,1.033,0.757,0.329,0.587,0.541,��쐼,3.2,��
2023/08/26,03:20,0.553,0.835,0.510,1.034,0.755,0.329,0.586,0.541,��,2.3,��
2023/08/26,03:30,0.554,0.836,0.510,1.033,0.756,0.330,0.586,0.541,��쐼,1.5,��
2023/08/26,03:40,0.554,0.835,0.508,1.033,0.757,0.328,0.586,0.542,��쐼,1.1,��
2023/08/26,03:50,0.553,0.838,0.509,1.035,0.755,0.330,0.585,0.542,��쐼,1.2,��
2023/08/26,04:00,0.553,0.837,0.509,1.033,0.754,0.329,0.586,0.542,�쐼,0.9,��
2023/08/26,04:10,0.554,0.837,0.509,1.034,0.755,0.330,0.586,0.541,-,CALM,��
2023/08/26,04:20,0.552,0.837,0.508,1.033,0.757,0.330,0.585,0.542,-,CALM,��
2023/08/26,04:30,0.554,0.838,0.510,1.031,0.754,0.328,0.584,0.541,�k�k��,0.9,��
2023/08/26,04:40,0.553,0.836,0.509,1.035,0.756,0.329,0.585,0.540,�k,0.9,��
2023/08/26,04:50,0.553,0.834,0.509,1.032,0.755,0.328,0.586,0.540,�k�k��,1.1,��
2023/08/26,05:00,0.554,0.837,0.510,1.033,0.757,0.330,0.584,0.541,�k�k��,0.9,��
2023/08/26,05:10,0.553,0.838,0.509,1.033,0.757,0.329,0.585,0.542,���k��,0.8,��
2023/08/26,05:20,0.553,0.838,0.510,1.036,0.754,0.329,0.586,0.541,�k�k��,1.1,��
2023/08/26,05:30,0.554,0.837,0.509,1.034,0.756,0.329,0.585,0.541,�k,1.7,��
2023/08/26,05:40,0.555,0.838,0.510,1.038,0.757,0.328,0.586,0.541,�k�k��,1.7,��
2023/08/26,05:50,0.555,0.836,0.509,1.035,0.757,0.329,0.586,0.542,�k��,1.7,��
2023/08/26,06:00,0.555,0.838,0.511,1.035,0.757,0.329,0.586,0.542,�k��,1.5,��
2023/08/26,06:10,0.556,0.836,0.512,1.034,0.756,0.329,0.586,0.541,�k��,2.2,��
2023/08/26,06:20,0.555,0.837,0.512,1.036,0.757,0.329,0.586,0.541,�k��,2.0,��
2023/08/26,06:30,0.555,0.837,0.511,1.033,0.755,0.329,0.587,0.542,�k��,2.6,��
2023/08/26,06:40,0.554,0.837,0.509,1.034,0.755,0.330,0.586,0.543,�k�k��,2.6,��
2023/08/26,06:50,0.555,0.835,0.510,1.033,0.753,0.330,0.586,0.542,�k��,2.6,��
2023/08/26,07:00,0.553,0.836,0.510,1.034,0.757,0.331,0.586,0.542,�k�k��,2.0,��
2023/08/26,07:10,0.553,0.836,0.511,1.034,0.756,0.330,0.586,0.542,�k��,1.7,��
2023/08/26,07:20,0.553,0.834,0.511,1.033,0.755,0.329,0.587,0.541,�k,0.9,��
2023/08/26,07:30,0.554,0.834,0.509,1.036,0.755,0.330,0.585,0.543,�k�k��,0.6,��
2023/08/26,07:40,0.554,0.835,0.510,1.037,0.756,0.330,0.587,0.543,�k�k��,1.2,��
2023/08/26,07:50,0.555,0.836,0.509,1.037,0.755,0.330,0.586,0.541,�k�k��,1.1,��
2023/08/26,08:00,0.554,0.837,0.510,1.034,0.753,0.329,0.586,0.542,�k�k��,1.2,��
2023/08/26,08:10,0.553,0.835,0.510,1.035,0.755,0.328,0.586,0.542,�k��,0.9,��
2023/08/26,08:20,0.553,0.836,0.509,1.031,0.757,0.329,0.586,0.543,�k��,1.4,��
2023/08/26,08:30,0.554,0.836,0.507,1.033,0.756,0.329,0.586,0.542,���k��,1.5,��
2023/08/26,08:40,0.553,0.837,0.508,1.031,0.754,0.329,0.588,0.543,���k��,1.7,��
2023/08/26,08:50,0.553,0.836,0.508,1.034,0.755,0.329,0.587,0.540,���k��,1.5,��
2023/08/26,09:00,0.553,0.837,0.508,1.033,0.755,0.328,0.585,0.540,��,0.9,��
2023/08/26,09:10,0.552,0.837,0.507,1.034,0.755,0.327,0.586,0.539,�k��,1.2,��
2023/08/26,09:20,0.552,0.835,0.509,1.033,0.756,0.327,0.587,0.540,���k��,2.0,��
2023/08/26,09:30,0.552,0.834,0.508,1.033,0.757,0.328,0.586,0.541,��,1.7,��
2023/08/26,09:40,0.553,0.838,0.507,1.033,0.756,0.328,0.587,0.540,���쓌,2.3,��
2023/08/26,09:50,0.552,0.837,0.508,1.033,0.757,0.327,0.586,0.540,��,1.7,��
2023/08/26,10:00,0.553,0.837,0.508,1.034,0.755,0.329,0.586,0.541,���쓌,0.9,��
2023/08/26,10:10,0.553,0.839,0.508,1.034,0.755,0.328,0.587,0.541,�쓌,1.5,��
2023/08/26,10:20,0.552,0.836,0.508,1.033,0.756,0.328,0.585,0.540,��쓌,2.3,��
2023/08/26,10:30,0.552,0.835,0.508,1.034,0.755,0.329,0.585,0.540,�쓌,2.2,��
2023/08/26,10:40,0.552,0.836,0.509,1.035,0.755,0.327,0.585,0.540,�쓌,2.8,��
2023/08/26,10:50,0.552,0.836,0.508,1.033,0.757,0.328,0.585,0.540,��쓌,4.6,��
2023/08/26,11:00,0.553,0.836,0.509,1.033,0.755,0.328,0.584,0.540,��쓌,5.0,��
2023/08/26,11:10,0.554,0.839,0.510,1.033,0.755,0.328,0.584,0.542,��쓌,6.0,��
2023/08/26,11:20,0.555,0.835,0.509,1.032,0.756,0.328,0.584,0.542,��쓌,5.3,��
2023/08/26,11:30,0.553,0.837,0.509,1.034,0.756,0.327,0.585,0.541,��쓌,5.9,��
2023/08/26,11:40,0.552,0.836,0.509,1.035,0.755,0.328,0.586,0.540,�쓌,5.2,��
2023/08/26,11:50,0.553,0.837,0.510,1.034,0.754,0.328,0.584,0.542,��쓌,4.5,��
2023/08/26,12:00,0.552,0.836,0.509,1.034,0.757,0.328,0.586,0.541,�쓌,5.2,��
2023/08/26,12:10,0.553,0.835,0.509,1.034,0.756,0.328,0.585,0.540,��쓌,5.3,��
2023/08/26,12:20,0.554,0.838,0.509,1.035,0.758,0.328,0.586,0.542,�쓌,5.2,��
2023/08/26,12:30,0.554,0.837,0.509,1.034,0.757,0.327,0.585,0.541,�쓌,4.4,��
2023/08/26,12:40,0.554,0.838,0.508,1.032,0.756,0.328,0.586,0.541,�쓌,4.8,��
2023/08/26,12:50,0.552,0.838,0.511,1.034,0.757,0.329,0.584,0.541,�쓌,5.1,��
2023/08/26,13:00,0.553,0.837,0.511,1.035,0.757,0.328,0.586,0.543,�쓌,5.6,��
2023/08/26,13:10,0.553,0.838,0.512,1.033,0.759,0.328,0.586,0.542,�쓌,5.2,��
2023/08/26,13:20,0.555,0.838,0.511,1.033,0.758,0.328,0.589,0.542,�쓌,6.1,��
2023/08/26,13:30,0.554,0.840,0.510,1.033,0.759,0.329,0.585,0.542,�쓌,6.1,��
2023/08/26,13:40,0.553,0.840,0.512,1.033,0.759,0.328,0.588,0.544,�쓌,5.6,��
2023/08/26,13:50,0.553,0.837,0.511,1.036,0.756,0.328,0.588,0.543,�쓌,5.7,��
2023/08/26,14:00,0.553,0.839,0.511,1.033,0.758,0.329,0.588,0.543,��쓌,4.6,��
2023/08/26,14:10,0.554,0.837,0.513,1.036,0.758,0.329,0.586,0.544,��쓌,5.9,��
2023/08/26,14:20,0.556,0.838,0.512,1.036,0.757,0.328,0.588,0.542,�쓌,4.8,��
2023/08/26,14:30,0.553,0.836,0.512,1.036,0.758,0.330,0.589,0.542,��쓌,5.1,��
2023/08/26,14:40,0.554,0.837,0.514,1.039,0.757,0.329,0.588,0.543,��쓌,5.8,��
2023/08/26,14:50,0.556,0.838,0.513,1.036,0.759,0.330,0.588,0.542,�쓌,5.2,��
2023/08/26,15:00,0.556,0.837,0.512,1.037,0.756,0.331,0.588,0.542,��쓌,3.4,��
2023/08/26,15:10,0.556,0.838,0.513,1.034,0.760,0.330,0.588,0.541,�쓌,1.4,��
2023/08/26,15:20,0.556,0.839,0.511,1.033,0.756,0.330,0.588,0.540,�쓌,4.7,��
2023/08/26,15:30,0.556,0.840,0.510,1.035,0.756,0.329,0.589,0.541,��쓌,4.3,��
2023/08/26,15:40,0.554,0.839,0.512,1.035,0.757,0.330,0.588,0.541,��쓌,5.1,��
2023/08/26,15:50,0.557,0.841,0.510,1.035,0.756,0.329,0.587,0.540,��쓌,5.2,��
2023/08/26,16:00,0.554,0.838,0.511,1.033,0.757,0.330,0.587,0.540,��쓌,5.2,��
2023/08/26,16:10,0.555,0.840,0.509,1.035,0.756,0.328,0.586,0.540,��쓌,5.5,��
2023/08/26,16:20,0.554,0.839,0.510,1.036,0.757,0.330,0.588,0.541,�쓌,5.0,��
2023/08/26,16:30,0.555,0.837,0.510,1.035,0.758,0.328,0.585,0.540,�쓌,4.7,��
2023/08/26,16:40,0.555,0.838,0.511,1.034,0.757,0.329,0.586,0.540,�쓌,5.1,��
2023/08/26,16:50,0.555,0.839,0.512,1.036,0.758,0.328,0.586,0.540,��쓌,4.6,��
2023/08/26,17:00,0.554,0.839,0.510,1.037,0.758,0.328,0.586,0.541,��쓌,5.0,��
2023/08/26,17:10,0.554,0.836,0.510,1.037,0.759,0.328,0.586,0.541,��쓌,5.3,��
2023/08/26,17:20,0.555,0.838,0.510,1.036,0.757,0.329,0.585,0.540,��쓌,5.8,��
2023/08/26,17:30,0.555,0.838,0.511,1.035,0.756,0.327,0.586,0.541,�쓌,6.2,��
2023/08/26,17:40,0.553,0.838,0.510,1.037,0.756,0.329,0.584,0.540,��쓌,6.6,��
2023/08/26,17:50,0.554,0.837,0.508,1.039,0.757,0.328,0.584,0.541,��쓌,5.8,��
2023/08/26,18:00,0.553,0.835,0.509,1.035,0.757,0.327,0.585,0.541,��쓌,5.8,��
2023/08/26,18:10,0.553,0.838,0.508,1.035,0.758,0.329,0.586,0.541,��쓌,4.7,��
2023/08/26,18:20,0.553,0.837,0.510,1.035,0.757,0.328,0.584,0.540,��쓌,5.6,��
2023/08/26,18:30,0.555,0.838,0.510,1.033,0.755,0.328,0.585,0.541,��쓌,6.1,��
2023/08/26,18:40,0.554,0.836,0.509,1.035,0.756,0.327,0.586,0.541,��쓌,6.4,��
2023/08/26,18:50,0.555,0.836,0.510,1.036,0.756,0.327,0.585,0.540,��쓌,6.0,��
2023/08/26,19:00,0.554,0.838,0.509,1.036,0.755,0.328,0.586,0.542,��쓌,6.5,��
2023/08/26,19:10,0.555,0.839,0.509,1.037,0.757,0.327,0.584,0.541,��쓌,6.7,��
2023/08/26,19:20,0.553,0.836,0.511,1.034,0.758,0.329,0.585,0.540,��,5.5,��
2023/08/26,19:30,0.554,0.837,0.510,1.034,0.758,0.329,0.587,0.542,��쓌,5.4,��
2023/08/26,19:40,0.556,0.836,0.510,1.037,0.757,0.328,0.586,0.542,��,4.9,��
2023/08/26,19:50,0.555,0.838,0.509,1.035,0.758,0.328,0.586,0.540,��,5.7,��
2023/08/26,20:00,0.556,0.838,0.510,1.036,0.759,0.329,0.586,0.542,��쓌,5.4,��
2023/08/26,20:10,0.555,0.835,0.511,1.033,0.758,0.328,0.586,0.540,��,5.2,��
2023/08/26,20:20,0.554,0.837,0.509,1.036,0.757,0.329,0.587,0.541,��,4.9,��
2023/08/26,20:30,0.555,0.837,0.509,1.035,0.758,0.330,0.586,0.542,��쓌,4.7,��
2023/08/26,20:40,0.556,0.840,0.511,1.037,0.756,0.328,0.586,0.541,��,4.5,��
2023/08/26,20:50,0.553,0.837,0.510,1.034,0.756,0.328,0.586,0.541,��,4.8,��
2023/08/26,21:00,0.554,0.836,0.511,1.034,0.757,0.329,0.585,0.540,��,4.5,��
2023/08/26,21:10,0.554,0.836,0.510,1.035,0.759,0.330,0.587,0.540,��,4.4,��
2023/08/26,21:20,0.555,0.838,0.511,1.035,0.760,0.329,0.585,0.541,��쓌,4.1,��
2023/08/26,21:30,0.554,0.836,0.511,1.035,0.756,0.330,0.587,0.541,��,3.6,��
2023/08/26,21:40,0.553,0.837,0.511,1.037,0.758,0.329,0.586,0.541,��,4.0,��
2023/08/26,21:50,0.554,0.839,0.511,1.038,0.755,0.330,0.586,0.542,��,3.3,��
2023/08/26,22:00,0.553,0.837,0.512,1.037,0.756,0.329,0.586,0.540,��,3.9,��
2023/08/26,22:10,0.553,0.837,0.511,1.036,0.756,0.330,0.585,0.540,��,4.3,��
2023/08/26,22:20,0.555,0.838,0.511,1.036,0.757,0.329,0.586,0.541,��,4.1,��
2023/08/26,22:30,0.554,0.837,0.510,1.036,0.759,0.329,0.586,0.542,��,3.8,��
2023/08/26,22:40,0.553,0.837,0.511,1.036,0.757,0.331,0.587,0.541,��,3.9,��
2023/08/26,22:50,0.556,0.839,0.510,1.036,0.758,0.329,0.587,0.541,��쐼,3.4,��
2023/08/26,23:00,0.553,0.838,0.509,1.036,0.757,0.329,0.585,0.542,��쐼,2.6,��
2023/08/26,23:10,0.553,0.838,0.509,1.034,0.757,0.329,0.586,0.540,�쐼,2.6,��
2023/08/26,23:20,0.557,0.837,0.509,1.032,0.758,0.329,0.585,0.542,��쐼,1.9,��
2023/08/26,23:30,0.555,0.837,0.510,1.034,0.757,0.330,0.586,0.540,��쐼,1.7,��
2023/08/26,23:40,0.556,0.839,0.509,1.035,0.758,0.328,0.587,0.542,�쐼,1.4,��
2023/08/26,23:50,0.554,0.839,0.510,1.036,0.758,0.330,0.586,0.542,�쐼,1.2,��
